SCP
0 0 0 0 0 0 0 0 0 0 0 0 0 0 0 0 0 0 0 0 0 0 0 0 0 0 0 0 0 0 0 0 0 0 0 0 0 0 0 0 0 0 0 0 0 0 0 0 0
0 0 0 0 0 0 0 0 0 0 0 0 0 0 0 0 0 0 0 0 0 0 0 0 0 0 0 0 0 0 0 0 0 0 0 0 0 0 0 0 0 0 0 0 0 0 0 0 0
0 0 0 0 0 0 0 0 0 0 0 0 0 0 0 0 0 0 0 0 0 0 0 0 0 0 0 0 0 0 0 0 0 0 0 0 0 0 0 0 0 0 0 0 0 0 0 0 0
0 0 0 0 0 0 0 0 0 0 0 0 0 0 0 0 0 0 0 0 0 0 0 0 0 0 0 0 0 0 0 0 0 0 0 0 0 0 0 0 0 0 0 0 0 0 0 0 0
0 0 0 0 0 0 0 0 0 0 0 0 0 0 0 0 0 0 0 0 0 0 0 0 0 0 0 0 0 0 0 0 0 0 0 0 0 0 0 0 0 0 0 0 0 0 0 0 0
0 0 0 0 0 0 0 0 0 0 0 0 0 0 0 0 0 0 0 0 0 0 0 0 0 0 0 0 0 0 0 0 0 0 0 0 0 0 0 0 0 0 0 0 0 0 0 0 0
0 0 0 0 0 0 0 0 0 0 0 0 0 0 0 0 0 0 0 0 0 0 0 0 0 0 0 0 0 0 0 0 0 0 0 0 0 0 0 0 0 0 0 0 0 0 0 0 0
0 0 0 0 0 0 0 0 0 0 0 0 0 0 0 0 0 0 0 0 0 0 0 0 0 0 0 0 0 0 0 0 0 0 0 0 0 0 0 0 0 0 0 0 0 0 0 0 0
0 0 0 0 0 0 0 0 0 0 0 0 0 0 0 0 0 0 0 0 0 0 0 0 0 0 0 0 0 0 0 0 0 0 0 0 0 0 0 0 0 0 0 0 0 0 0 0 0
0 0 0 0 0 0 0 0 0 0 0 0 0 0 0 0 0 0 0 0 0 0 0 0 0 0 0 0 0 0 0 0 0 0 0 0 0 0 0 0 0 0 0 0 0 0 0 0 0
0 0 0 0 0 0 0 0 0 0 0 0 0 0 0 0 0 0 0 0 0 0 0 0 0 0 0 0 0 0 0 0 0 0 0 0 0 0 0 0 0 0 0 0 0 0 0 0 0
0 0 0 0 0 0 0 0 0 0 0 0 0 0 0 0 0 0 0 0 0 0 0 0 0 0 0 0 0 0 0 0 0 0 0 0 0 0 0 0 0 0 0 0 0 0 0 0 0
0 0 0 0 0 0 0 0 0 0 0 0 0 0 0 0 0 0 0 0 0 0 0 0 0 0 0 0 0 0 0 0 0 0 0 0 0 0 0 0 0 0 0 0 0 0 0 0 0
0 0 0 0 0 0 0 0 0 0 0 0 0 0 0 0 0 0 0 0 0 0 0 0 0 0 0 0 0 0 0 0 0 0 0 0 0 0 0 0 0 0 0 0 0 0 0 0 0
0 0 0 0 0 0 0 0 0 0 0 0 0 0 0 0 0 0 0 0 0 0 0 0 0 0 0 0 0 0 0 0 0 0 0 0 0 0 0 0 0 0 0 0 0 0 0 0 0
0 0 0 0 0 0 0 0 0 0 0 0 0 0 0 0 0 0 0 0 0 0 0 0 0 0 0 0 0 0 0 0 0 0 0 0 0 0 0 0 0 0 0 0 0 0 0 0 0
0 0 0 0 0 0 0 0 0 0 0 0 0 0 0 0 0 0 0 0 0 0 0 0 0 0 0 0 0 0 0 0 0 0 0 0 0 0 0 0 0 0 0 0 0 0 0 0 0
0 0 0 0 0 0 0 0 0 0 0 0 0 0 0 0 0 0 0 0 0 0 0 0 0 0 0 0 0 0 0 0 0 0 0 0 0 0 0 0 0 0 0 0 0 0 0 0 0
0 0 0 0 0 0 0 0 0 0 0 0 0 0 0 0 0 0 0 0 0 0 0 0 0 0 0 0 0 0 0 0 0 0 0 0 0 0 0 0 0 0 0 0 0 0 0 0 0
0 0 0 0 0 0 0 0 0 0 0 0 0 0 0 0 0 0 0 0 0 0 0 0 0 0 0 0 0 0 0 0 0 0 0 0 0 0 0 0 0 0 0 0 0 0 0 0 0
0 0 0 0 0 0 0 0 0 0 0 0 0 0 0 0 0 0 0 0 0 0 0 0 0 0 0 0 0 0 0 0 0 0 0 0 0 0 0 0 0 0 0 0 0 0 0 0 0
0 0 0 0 0 0 0 0 0 0 0 0 0 0 0 0 0 0 0 0 0 0 0 0 0 0 0 0 0 0 0 0 0 0 0 0 0 0 0 0 0 0 0 0 0 0 0 0 0
0 0 0 0 0 0 0 0 0 0 0 0 0 0 0 0 0 0 0 0 0 0 0 0 0 0 0 0 0 0 0 0 0 0 0 0 0 0 0 0 0 0 0 0 0 0 0 0 0
0 0 0 0 0 0 0 0 0 0 0 0 0 0 0 0 0 0 0 0 0 0 0 0 0 0 0 0 0 0 0 0 0 0 0 0 0 0 0 0 0 0 0 0 0 0 0 0 0
0 0 0 0 0 0 0 0 0 0 0 0 0 0 0 0 0 0 0 0 0 0 0 0 0 0 0 0 0 0 0 0 0 0 0 0 0 0 0 0 0 0 0 0 0 0 0 0 0
0 0 0 0 0 0 0 0 0 0 0 0 0 0 0 0 0 0 0 0 0 0 0 0 0 0 0 0 0 0 0 0 0 0 0 0 0 0 0 0 0 0 0 0 0 0 0 0 0
0 0 0 0 0 0 0 0 0 0 0 0 0 0 0 0 0 0 0 0 0 0 0 0 0 0 0 0 0 0 0 0 0 0 0 0 0 0 0 0 0 0 0 0 0 0 0 0 0
0 0 0 0 0 0 0 0 0 0 0 0 0 0 0 0 0 0 0 0 0 0 0 0 0 0 0 0 0 0 0 0 0 0 0 0 0 0 0 0 0 0 0 0 0 0 0 0 0
0 0 0 0 0 0 0 0 0 0 0 0 0 0 0 0 0 0 0 0 0 0 0 0 0 0 0 0 0 0 0 0 0 0 0 0 0 0 0 0 0 0 0 0 0 0 0 0 0
0 0 0 0 0 0 0 0 0 0 0 0 0 0 0 0 0 0 0 0 0 0 0 0 0 0 0 0 0 0 0 0 0 0 0 0 0 0 0 0 0 0 0 0 0 0 0 0 0
Wind_Speed
6 3 3 5 7 7 2 2 2 3 2 1 1 3 3 1 1 2 2 5 4 6 9 9 10 11 10 9 9 9 9 9 9 9 9 8 8 7 7 8 9 10 10 9 9 9 10 10 11
2 1 5 6 7 4 2 3 2 2 1 1 1 2 2 1 2 2 1 4 4 5 8 9 11 11 11 10 9 9 9 8 8 8 8 7 6 6 7 8 9 9 9 8 8 8 9 9 10
1 4 6 6 5 5 3 2 2 2 2 2 2 1 1 1 2 2 1 4 4 5 6 8 12 11 11 11 10 10 9 9 8 8 7 6 5 5 6 7 8 8 7 7 7 7 8 8 9
3 5 6 7 3 3 3 1 1 1 3 3 2 2 2 1 2 2 1 5 5 4 5 6 11 11 11 11 11 11 10 10 9 9 8 7 6 5 5 7 7 7 6 5 6 6 7 7 8
5 6 7 4 2 2 2 2 1 1 1 2 1 2 5 3 1 2 3 3 4 4 4 4 9 10 10 11 11 10 10 9 9 8 8 7 6 6 7 7 7 6 5 4 4 5 6 6 6
6 6 6 1 2 3 2 2 0 1 2 2 1 2 3 3 3 2 3 2 2 3 3 3 8 8 9 10 10 9 9 8 8 8 8 7 7 7 7 7 6 4 3 2 3 4 5 6 6
6 5 4 3 0 2 3 4 2 1 2 2 0 1 3 4 5 3 4 4 3 2 1 1 3 5 7 9 9 9 8 8 7 7 7 6 7 8 8 6 5 3 1 1 2 4 4 5 6
5 6 4 1 2 1 3 2 1 0 2 4 1 2 3 6 7 5 7 7 6 6 4 3 2 3 4 5 8 9 8 8 7 7 6 6 7 8 8 7 4 3 1 0 2 3 3 5 6
4 6 3 4 4 2 1 1 1 1 2 3 3 4 5 8 7 8 8 8 8 8 7 5 4 3 4 4 5 7 8 8 8 6 7 5 3 4 5 6 5 3 2 1 2 2 4 7 7
5 4 5 3 3 2 1 0 3 4 5 3 3 5 10 11 12 12 10 10 10 11 10 7 5 5 4 4 3 3 3 4 4 3 4 2 3 3 4 6 5 3 3 2 2 3 7 6 4
3 4 3 2 2 0 1 1 0 1 2 2 3 6 10 13 14 12 10 8 8 8 9 9 7 6 5 4 3 2 2 2 3 3 3 2 3 2 2 2 3 3 4 3 3 5 3 3 2
1 2 2 2 1 0 1 1 0 1 2 5 7 6 7 12 12 11 10 10 10 9 10 10 8 6 5 4 3 2 2 2 2 2 3 3 2 3 3 2 3 3 3 4 3 2 2 2 2
1 2 2 3 2 3 2 2 1 2 6 8 10 12 12 11 9 8 7 8 9 10 12 11 9 6 3 3 2 2 2 1 2 1 2 3 3 3 3 3 2 3 3 4 4 4 3 2 1
1 2 5 5 3 2 3 2 3 3 6 9 12 11 10 10 10 10 12 12 12 12 12 11 10 7 3 0 1 1 1 0 1 1 2 3 2 3 3 3 3 3 3 3 4 4 4 2 1
1 3 6 4 2 1 2 1 3 6 7 10 10 8 10 10 11 11 10 10 10 11 11 11 10 10 8 5 5 4 4 3 3 3 4 3 1 1 2 2 2 2 2 2 2 3 3 3 2
3 3 4 5 1 0 3 3 2 5 8 9 7 7 8 9 10 10 10 9 10 10 10 11 10 12 13 11 10 9 9 10 9 9 9 11 8 5 2 1 1 1 1 1 1 2 1 2 2
2 1 4 6 1 1 2 4 0 3 8 7 6 6 7 8 11 10 11 10 10 9 9 11 12 12 12 13 13 13 12 13 11 11 11 13 14 12 8 6 5 4 2 2 1 1 1 1 1
7 5 5 6 2 2 2 5 3 4 7 7 5 5 6 8 9 8 9 9 9 8 9 11 12 11 8 8 10 11 13 12 11 12 13 15 13 14 11 8 9 7 5 4 3 3 3 2 2
6 7 6 6 2 2 5 8 4 3 6 6 5 5 5 5 6 7 8 9 9 11 12 13 13 12 8 6 6 8 9 9 10 11 14 15 15 14 13 9 10 9 7 6 5 3 3 3 3
4 5 5 5 2 4 5 7 1 3 3 4 5 5 4 4 6 8 8 9 10 10 10 11 12 11 10 6 5 5 5 7 8 9 13 15 15 14 12 12 10 10 8 9 8 5 3 3 3
6 7 7 6 2 1 2 7 3 3 3 5 4 4 3 4 4 5 7 8 8 10 10 9 10 11 11 8 6 6 5 5 7 10 10 13 14 14 13 13 11 10 9 9 9 7 5 3 2
7 8 7 5 2 4 1 5 6 4 3 3 3 3 3 2 2 3 4 6 7 7 7 8 10 12 11 9 11 14 12 10 6 5 6 9 12 13 13 12 12 10 9 9 9 8 5 4 3
6 3 5 4 5 2 2 4 8 3 5 7 6 6 4 3 3 2 3 4 5 5 6 7 9 12 11 11 11 12 11 7 5 5 8 8 9 11 11 11 10 10 9 10 10 9 8 6 4
7 7 6 5 4 4 7 7 9 7 7 7 9 8 7 5 4 3 3 3 5 5 6 6 10 11 9 10 11 12 11 8 9 9 8 6 6 7 10 9 9 8 8 8 8 8 8 7 6
5 6 2 2 1 8 2 5 10 3 2 7 14 12 8 7 6 4 4 3 4 4 5 5 8 9 7 9 9 9 9 9 9 7 6 6 5 5 8 8 7 6 6 6 7 7 7 7 7
7 9 9 8 6 5 3 9 8 0 2 3 9 10 8 7 6 6 5 5 4 4 4 5 7 7 6 7 7 6 7 5 5 5 5 4 3 3 5 5 6 6 6 7 6 5 5 5 6
8 5 5 7 2 3 7 7 6 1 1 4 8 8 9 9 8 8 7 6 6 5 5 5 6 6 5 5 6 6 5 5 5 4 4 3 2 3 4 4 5 5 5 5 5 4 5 5 5
5 8 6 6 5 6 7 6 6 7 7 6 9 12 12 9 8 8 7 7 6 5 5 4 5 5 4 4 4 4 4 4 4 3 4 4 3 4 4 5 5 5 5 5 5 5 5 6 6
6 5 5 5 5 6 6 8 5 7 10 14 16 14 13 11 11 10 8 8 7 6 5 5 5 4 4 4 3 3 3 3 3 3 3 3 3 4 5 5 6 6 6 6 6 6 7 7 8
6 8 10 8 8 6 5 9 1 3 8 11 13 12 10 10 9 9 9 8 7 7 6 6 6 5 5 4 3 3 2 2 2 2 2 3 3 4 4 4 5 6 7 6 7 9 9 9 10
Wind_Direction
344 24 68 57 54 51 53 314 290 314 300 270 184 131 121 143 140 271 302 153 163 152 164 177 177 175 169 161 155 151 146 139 132 126 121 116 112 107 104 103 101 94 82 72 61 52 46 42 38
334 46 56 60 80 74 297 278 274 275 317 2 66 97 79 325 264 287 341 182 170 157 165 173 177 176 171 165 161 159 155 149 143 136 130 125 120 117 113 107 101 94 82 72 63 53 45 39 36
74 55 78 72 92 151 195 236 237 300 3 41 46 69 112 295 311 288 303 169 153 157 168 174 176 178 174 170 168 168 165 162 157 151 145 140 134 130 124 115 103 93 82 73 66 54 44 37 33
70 44 53 68 83 200 223 274 264 334 16 35 61 37 332 296 295 310 27 134 144 160 169 175 180 182 179 177 177 178 176 174 171 166 161 157 152 145 134 123 108 94 82 71 66 54 43 35 31
57 70 59 52 345 293 280 322 291 44 12 352 57 20 319 331 339 42 86 120 146 157 166 178 185 188 185 184 186 187 187 185 183 180 175 170 164 152 139 126 112 98 79 59 60 54 45 35 31
54 64 82 117 315 326 354 337 59 37 355 355 80 12 329 351 12 40 83 102 130 157 168 181 193 196 193 191 193 193 194 195 195 193 189 183 174 161 149 138 128 110 77 36 46 52 45 33 29
93 89 124 145 291 4 343 334 73 12 352 341 310 25 334 16 359 37 67 62 45 40 42 239 203 204 203 200 200 200 201 203 205 205 201 194 182 170 159 150 146 137 106 14 53 64 44 31 29
110 98 96 126 153 245 316 357 105 335 295 320 12 57 357 344 348 39 47 40 29 21 4 333 279 224 211 209 208 208 209 212 216 218 216 210 195 179 164 153 153 159 158 57 91 84 45 41 33
80 77 149 192 176 203 296 29 328 274 323 339 36 59 355 336 10 34 24 13 8 5 356 341 303 262 233 218 212 211 217 219 221 226 230 223 192 167 160 161 164 159 135 119 121 109 72 63 35
76 124 207 205 192 199 296 345 331 13 353 358 23 34 7 17 31 35 23 5 355 346 340 339 314 277 252 229 209 208 209 218 217 215 223 192 161 165 168 173 168 149 118 95 121 100 84 69 37
98 172 229 251 233 204 273 261 6 9 343 9 352 4 10 26 31 29 18 2 343 329 333 336 324 295 261 238 208 192 194 210 216 212 204 171 155 149 154 145 154 136 116 89 70 78 85 78 58
110 222 219 256 105 13 241 258 318 183 83 70 64 55 34 34 27 17 5 354 343 341 340 334 326 307 273 248 222 194 183 201 214 207 187 167 157 158 160 171 167 153 143 139 126 128 124 98 67
212 276 278 263 270 240 237 226 201 89 100 88 72 57 44 36 23 9 1 357 353 352 346 340 334 323 288 249 225 193 188 210 231 218 198 187 180 178 170 179 180 176 161 161 157 157 160 156 60
270 300 310 300 298 256 228 240 153 112 112 72 60 53 43 35 21 15 11 6 360 354 347 344 351 349 350 83 128 100 105 207 268 269 252 220 198 182 174 178 182 191 187 177 167 165 165 170 176
61 350 322 303 292 278 162 282 182 144 104 70 55 48 45 36 27 20 6 360 352 350 351 360 7 17 37 54 61 57 50 41 21 2 354 345 318 176 164 172 192 203 175 154 138 147 147 162 179
67 33 309 296 312 274 163 257 65 133 102 78 57 45 41 33 24 15 6 1 357 356 3 12 22 33 48 56 57 55 49 46 37 28 25 23 21 28 56 58 18 60 98 117 135 134 179 200 206
22 246 247 291 280 140 180 238 108 98 99 91 68 51 43 34 23 12 5 1 359 2 10 22 28 37 50 61 63 60 55 49 42 36 33 30 31 31 36 32 24 32 43 44 58 56 14 287 275
214 208 231 252 270 149 205 255 277 63 98 103 85 64 50 41 21 6 2 2 3 9 23 31 35 34 42 58 64 61 55 50 46 42 36 35 34 34 37 38 29 27 29 24 22 28 29 10 349
166 177 216 245 254 198 234 256 280 60 92 109 100 79 60 43 15 11 8 6 14 23 31 33 38 31 37 46 52 56 53 46 46 44 39 39 37 36 38 35 32 29 34 28 23 22 19 15 6
158 183 229 273 264 205 246 264 323 36 89 133 126 104 81 53 22 15 13 16 22 26 29 37 39 39 42 51 61 76 80 58 54 47 43 39 39 37 38 36 34 29 31 30 25 23 16 15 19
200 201 209 226 340 341 286 290 218 79 80 87 97 106 100 87 51 18 16 19 24 31 27 40 43 46 44 48 69 74 63 57 47 41 42 38 40 41 40 38 37 32 32 28 21 17 19 1 1
224 212 192 194 188 273 208 278 274 164 160 158 152 145 140 114 76 45 32 32 31 27 26 43 52 54 49 53 70 76 76 71 51 45 46 43 41 40 38 37 37 36 33 28 20 18 10 10 358
197 145 156 166 178 240 235 230 273 151 213 204 189 184 181 166 135 91 59 52 41 34 41 48 61 60 54 60 69 78 78 76 64 51 48 42 38 38 35 36 35 33 30 26 22 19 19 16 5
131 85 69 56 95 240 215 200 263 220 212 180 184 189 189 180 161 129 89 75 61 48 52 57 71 65 58 67 70 78 82 78 68 54 47 38 32 32 31 32 31 30 26 22 17 15 18 15 5
130 112 77 335 274 245 220 211 247 216 172 183 182 185 188 183 172 165 146 119 98 81 73 73 82 76 66 72 73 77 81 78 72 64 53 43 32 25 19 23 23 23 17 16 13 13 9 7 360
177 157 168 198 221 261 226 230 249 144 302 206 169 170 177 184 185 183 175 161 143 126 111 101 94 91 82 82 81 79 82 82 78 71 67 55 40 26 11 15 17 14 10 10 6 5 356 351 342
146 194 159 121 118 263 254 266 283 144 91 125 148 166 190 195 192 189 184 178 171 157 146 134 121 113 107 103 99 90 86 87 86 80 73 62 38 21 12 9 7 1 359 356 352 346 335 328 320
150 144 121 152 205 247 265 242 235 212 201 179 182 192 202 200 194 191 189 188 185 177 165 155 143 138 136 126 118 112 102 94 88 74 54 39 21 11 3 2 357 350 346 342 337 324 313 309 304
141 155 159 158 170 183 256 258 225 210 186 191 199 199 201 200 197 192 192 193 189 182 178 175 171 162 160 155 141 125 110 90 72 56 34 14 3 358 353 346 342 338 335 333 326 316 309 305 301
182 181 158 174 213 203 227 262 292 226 192 190 197 201 204 204 196 190 190 189 190 192 193 192 191 190 190 181 165 153 136 110 75 39 10 357 348 342 335 331 330 327 328 322 316 311 311 303 301